Hoquiam, WA

12:41 PM PST on February 10, 2016 (GMT -0800)
Bowerman

Weather History for KHQM - August, 2013

Change the Weather History Date:

Wednesday, August 7, 2013

  Actual Average Record
Temperature  
Mean Temperature 57 °F 61 °F  
Max Temperature 62 °F 67 °F 90 °F (1972)
Min Temperature 51 °F 54 °F 47 °F (1971)
Degree Days  
Heating Degree Days 8 4  
Month to date heating degree days 37 28  
Since 1 June heating degree days 359 438  
Cooling Degree Days 0 0  
Month to date cooling degree days 0 0  
Year to date cooling degree days 11 9  
Since 1 June cooling degree days 8 8  
Growing Degree Days 6 (Base 50)    
Moisture  
Dew Point 54 °F    
Average Humidity 92    
Maximum Humidity 100    
Minimum Humidity 84    
Precipitation  
Precipitation 0.00 in 0.03 in 0.38 in (1957)
Month to date precipitation T 0.18  
Year to date precipitation 32.56 36.48  
Sea Level Pressure  
Sea Level Pressure 30.04 in    
Wind  
Wind Speed 9 mph (SW)    
Max Wind Speed 21 mph    
Max Gust Speed 23 mph    
Visibility 4 miles    
Events Fog    
T = Trace of Precipitation, MM = Missing Value Source: NWS Daily Summary

Daily Weather History Graph

Daily Weather History Graph

Search for Another Location

Airport or City:

Trip Planner

Search our weather history database for the weather conditions in past years. The results will help you decide how hot, cold, wet, or windy it might be!

Date:

Astronomy

Aug. 07, 2013 Rise Set
Actual Time 6:03 AM PDT 8:38 PM PDT
Civil Twilight 5:28 AM PDT 9:13 PM PDT
Nautical Twilight 4:45 AM PDT 9:56 PM PDT
Astronomical Twilight 3:54 AM PDT 10:46 PM PDT
Moon 7:05 AM PDT (8/7) 8:39 PM PDT (8/7)
Length of Visible Light 15h 44m
Length of Day
14h 35m
New Moon, 1% of the Moon is Illuminated
Aug 7
New Moon
Aug 14
First Quarter
Aug 20
Full
Aug 28
Last Quarter
Sep 5
New

Hourly Weather History & Observations

Time (PDT) Temp. Dew Point Humidity Pressure Visibility Wind Dir Wind Speed Gust Speed Precip Events Conditions
12:53 AM 53.1 °F 52.0 °F 96% 30.02 in 10.0 mi West 3.5 mph - N/A   Overcast
1:19 AM 53.6 °F 51.8 °F 94% 30.01 in 3.0 mi West 6.9 mph - N/A   Overcast
1:53 AM 53.1 °F 52.0 °F 96% 30.02 in 6.0 mi WSW 4.6 mph - N/A   Overcast
2:53 AM 52.0 °F 51.1 °F 97% 30.02 in 1.8 mi Calm Calm - N/A   Overcast
3:07 AM 51.8 °F 51.8 °F 100% 30.01 in 3.0 mi Calm Calm - N/A   Overcast
3:48 AM 51.8 °F 51.8 °F 100% 30.01 in 2.0 mi Calm Calm - N/A   Overcast
3:53 AM 52.0 °F 51.1 °F 97% 30.02 in 2.5 mi Calm Calm - N/A   Overcast
4:05 AM 51.8 °F 51.8 °F 100% 30.01 in 1.8 mi Calm Calm - N/A   Overcast
4:12 AM 51.8 °F 51.8 °F 100% 30.01 in 3.0 mi Calm Calm - N/A   Overcast
4:23 AM 51.8 °F 51.8 °F 100% 30.00 in 2.5 mi Calm Calm - N/A   Overcast
4:30 AM 51.8 °F 51.8 °F 100% 30.00 in 4.0 mi Calm Calm - N/A   Overcast
4:53 AM 52.0 °F 51.1 °F 97% 30.01 in 3.0 mi Calm Calm - N/A   Overcast
5:15 AM 51.8 °F 51.8 °F 100% 30.00 in 2.0 mi Calm Calm - N/A   Overcast
5:32 AM 51.8 °F 51.8 °F 100% 30.00 in 1.2 mi Calm Calm - N/A   Overcast
5:43 AM 51.8 °F 51.8 °F 100% 30.00 in 2.0 mi SW 3.5 mph - N/A   Overcast
5:53 AM 52.0 °F 52.0 °F 100% 30.01 in 2.0 mi SW 3.5 mph - N/A   Overcast
6:03 AM 51.8 °F 51.8 °F 100% 30.01 in 1.2 mi Calm Calm - N/A   Overcast
6:24 AM 51.8 °F 51.8 °F 100% 30.02 in 0.5 mi Calm Calm - N/A Fog Fog
6:47 AM 51.8 °F 51.8 °F 100% 30.02 in 2.0 mi South 3.5 mph - N/A   Overcast
6:51 AM 51.8 °F 51.8 °F 100% 30.02 in 0.8 mi SSW 3.5 mph - N/A   Overcast
6:53 AM 52.0 °F 52.0 °F 100% 30.04 in 0.5 mi Calm Calm - N/A Fog Fog
7:27 AM 51.8 °F 51.8 °F 100% 30.04 in 0.2 mi South 8.1 mph - N/A Fog Fog
7:38 AM 51.8 °F 51.8 °F 100% 30.04 in 0.5 mi South 8.1 mph - N/A Fog Fog
7:51 AM 51.8 °F 51.8 °F 100% 30.05 in 1.8 mi South 6.9 mph - N/A   Overcast
7:53 AM 52.0 °F 52.0 °F 100% 30.06 in 1.8 mi South 6.9 mph - N/A   Overcast
8:10 AM 51.8 °F 51.8 °F 100% 30.05 in 3.0 mi SW 8.1 mph - N/A   Overcast
8:53 AM 53.1 °F 51.1 °F 93% 30.07 in 10.0 mi West 4.6 mph - N/A   Overcast
9:53 AM 55.0 °F 52.0 °F 89% 30.07 in 10.0 mi West 9.2 mph - N/A   Overcast
10:53 AM 57.0 °F 53.1 °F 87% 30.08 in 10.0 mi WSW 6.9 mph - N/A   Overcast
11:53 AM 57.9 °F 54.0 °F 87% 30.07 in 10.0 mi SSW 9.2 mph - N/A   Overcast
12:00 PM 59.0 °F 55.4 °F 88% 30.05 in 10.0 mi SSW 10.4 mph - N/A   Overcast
12:29 PM 59.0 °F 55.4 °F 88% 30.06 in 10.0 mi South 12.7 mph - N/A   Partly Cloudy
12:53 PM 60.1 °F 55.0 °F 83% 30.07 in 10.0 mi SSW 10.4 mph - N/A   Clear
1:53 PM 61.0 °F 55.0 °F 81% 30.06 in 10.0 mi SSW 13.8 mph - N/A   Clear
2:53 PM 60.1 °F 55.0 °F 83% 30.05 in 10.0 mi SSW 16.1 mph - N/A   Clear
3:51 PM 60.8 °F 55.4 °F 82% 30.03 in 10.0 mi SW 17.3 mph - N/A   Partly Cloudy
3:53 PM 61.0 °F 55.0 °F 81% 30.04 in 10.0 mi SW 17.3 mph - N/A   Partly Cloudy
4:08 PM 60.8 °F 55.4 °F 82% 30.03 in 10.0 mi WSW 18.4 mph - N/A   Mostly Cloudy
4:53 PM 60.1 °F 55.9 °F 86% 30.04 in 10.0 mi SW 18.4 mph - N/A   Overcast
5:53 PM 60.1 °F 55.9 °F 86% 30.04 in 10.0 mi WSW 17.3 mph - N/A   Overcast
6:53 PM 59.0 °F 55.9 °F 90% 30.05 in 9.0 mi WSW 12.7 mph - N/A   Overcast
7:05 PM 57.2 °F 57.2 °F 100% 30.04 in 1.8 mi SW 15.0 mph - N/A   Overcast
7:11 PM 57.2 °F 57.2 °F 100% 30.04 in 0.8 mi SW 16.1 mph - N/A   Overcast
7:21 PM 59.0 °F 57.2 °F 94% 30.04 in 1.8 mi WSW 15.0 mph - N/A   Overcast
7:24 PM 59.0 °F 57.2 °F 94% 30.04 in 3.0 mi WSW 15.0 mph - N/A   Overcast
7:32 PM 59.0 °F 57.2 °F 94% 30.04 in 1.8 mi WSW 11.5 mph - N/A   Overcast
7:53 PM 57.9 °F 57.0 °F 97% 30.06 in 1.8 mi WSW 12.7 mph - N/A   Overcast
8:53 PM 57.9 °F 57.0 °F 97% 30.06 in 4.0 mi WSW 12.7 mph - N/A   Overcast
9:15 PM 57.2 °F 57.2 °F 100% 30.06 in 2.0 mi WSW 10.4 mph - N/A   Overcast
9:29 PM 57.2 °F 57.2 °F 100% 30.06 in 1.8 mi WSW 10.4 mph - N/A   Overcast
9:36 PM 57.2 °F 57.2 °F 100% 30.06 in 2.5 mi WSW 10.4 mph - N/A   Overcast
9:44 PM 57.2 °F 57.2 °F 100% 30.06 in 3.0 mi WSW 8.1 mph - N/A   Overcast
9:53 PM 57.9 °F 57.0 °F 97% 30.08 in 3.0 mi West 10.4 mph - N/A   Overcast
10:02 PM 57.2 °F 57.2 °F 100% 30.06 in 2.0 mi WSW 9.2 mph - N/A   Overcast
10:09 PM 57.2 °F 57.2 °F 100% 30.07 in 1.5 mi WSW 11.5 mph - N/A   Overcast
10:53 PM 57.9 °F 57.9 °F 100% 30.07 in 1.5 mi WSW 9.2 mph - N/A   Overcast
11:04 PM 57.2 °F 57.2 °F 100% 30.06 in 2.0 mi WSW 9.2 mph - N/A   Overcast
11:14 PM 57.2 °F 57.2 °F 100% 30.06 in 1.5 mi WSW 10.4 mph - N/A   Overcast
11:27 PM 57.2 °F 57.2 °F 100% 30.06 in 2.0 mi WSW 11.5 mph - N/A   Overcast
11:53 PM 57.9 °F 57.0 °F 97% 30.07 in 3.0 mi WSW 9.2 mph - N/A   Overcast